Flag for Canada Weather past 2 weeks in Brandon, Manitoba, Canada

Now
43 °F

Passing clouds.


Feels Like: 36 °F
Forecast: 31 / 56 °F
Wind: 14 mph from Northeast

Location: Brandon

Current Time: May 29, 2015 at 9:28:46 PM

Latest Report: May 29, 2015 at 9:00 PM


Visibility: 15 mi

Pressure: 30.40 "Hg

Humidity: 53%

Dew point: 27 °F

Location of BrandonLocation

Historic Weather in Brandon — Graph

°F

Brandon temperature yesterday

Maximum temperature yesterday: 70 °F (at 7:00 PM)
Minimum temperature yesterday: 48 °F (at 5:00 AM)
Average temperature yesterday: 57 °F

Past Weeks' High & Low Weather Summary

 TemperatureHumidityPressure
High86 °F (May 26, 3:00 PM)100% (May 15, 1:00 AM)30.51 "Hg (May 15, 1:00 AM)
Low27 °F (May 19, 3:00 AM)17% (May 23, 6:00 PM)29.75 "Hg (May 25, 5:00 PM)
Average55 °F58%30.07 "Hg
* Reported May 14 8:00 PM — May 29 8:00 PM, Brandon, Weather by CustomWeather, © 2015

Note: Actual official high and low records may vary slightly from our data, if they occured in-between our weather recording intervals... More about our weather records

Advertising

Brandon weather history for previous 24 hours

 ConditionsComfort  
Time TempWeatherWind HumidityBarometerVisibility
8:00 PM
Fri, May 29
48 °FPassing clouds.16 mph46%30.37 "Hg15 mi
7:00 PM50 °FPassing clouds.16 mph43%30.36 "Hg15 mi
6:00 PM52 °FScattered clouds.16 mph38%30.35 "Hg15 mi
5:00 PM54 °FScattered clouds.18 mph41%30.33 "Hg15 mi
4:00 PM54 °FPassing clouds.12 mph41%30.32 "Hg15 mi
3:00 PM54 °FPassing clouds.9 mph41%30.33 "Hg15 mi
2:00 PM50 °FScattered clouds.8 mph47%30.33 "Hg15 mi
1:00 PM50 °FPassing clouds.10 mph40%30.33 "Hg15 mi
12:00 PM50 °FPassing clouds.14 mph47%30.33 "Hg15 mi
11:00 AM46 °FScattered clouds.18 mph53%30.32 "Hg15 mi
10:00 AM45 °FPartly sunny.16 mph61%30.31 "Hg15 mi
9:00 AM43 °FPartly sunny.18 mph66%30.31 "Hg15 mi
8:00 AM43 °FOvercast.21 mph66%30.28 "Hg15 mi
7:00 AM43 °FOvercast.17 mph76%30.24 "Hg15 mi
6:00 AM43 °FOvercast.16 mph76%30.21 "Hg15 mi
5:00 AM45 °FOvercast.23 mph66%30.19 "Hg15 mi
4:00 AM46 °FOvercast.18 mph66%30.18 "Hg15 mi
3:00 AM46 °FOvercast.10 mph71%30.16 "Hg15 mi
2:00 AM48 °FOvercast.18 mph71%30.15 "Hg15 mi
1:00 AM48 °FOvercast.17 mph76%30.13 "Hg15 mi
12:00 AM48 °FMostly cloudy.24 mph76%30.09 "Hg15 mi
11:00 PM
Thu, May 28
48 °FMostly cloudy.26 mph76%30.08 "Hg15 mi
10:00 PM52 °FMostly cloudy.24 mph72%30.06 "Hg15 mi
9:00 PM54 °FMostly cloudy.26 mph72%29.99 "Hg15 mi
Weather by CustomWeather, © 2015

See weather overviewHow to use our weather pages